Weather History for South Lake Tahoe, CA

Change the Weather History Date:

Friday, January 18, 2013

  Actual Average Record
Temperature  
Mean Temperature 23 °F 30 °F  
Max Temperature 45 °F 43 °F 57 °F (1985)
Min Temperature 1 °F 16 °F -5 °F (1988)
Degree Days  
Heating Degree Days 42 35  
Month to date heating degree days 776 637  
Since 1 July heating degree days 3638 3820  
Cooling Degree Days 0 0  
Month to date cooling degree days 0 0  
Year to date cooling degree days 0 0  
Moisture  
Dew Point 9 °F    
Average Humidity 55    
Maximum Humidity 80    
Minimum Humidity 29    
Precipitation  
Precipitation 0.00 in - 0.84 in (1951)
Month to date precipitation 0.36  
Year to date precipitation 0.36  
Sea Level Pressure  
Sea Level Pressure 30.45 in    
Wind  
Wind Speed 3 mph (South)    
Max Wind Speed 8 mph    
Max Gust Speed 9 mph    
Visibility 10 miles    
Events      
T = Trace of Precipitation, MM = Missing Value Source: NWS Daily Summary

Daily Weather History Graph

Daily Weather History Graph

Search for Another Location

Airport:

Trip Planner

Search our weather history database for the weather conditions in past years. The results will help you decide how hot, cold, wet, or windy it might be!

Date:

Astronomy

Jan. 18, 2013 Rise Set
Actual Time 7:15 AM PST 5:05 PM PST
Civil Twilight 6:46 AM PST 5:34 PM PST
Nautical Twilight 6:14 AM PST 6:07 PM PST
Astronomical Twilight 5:42 AM PST 6:39 PM PST
Moon 11:01 AM PST (1/18) No Moon Set
Length of Visible Light 10h 48m
Length of Day
9h 50m
Waxing Crescent, 48% of the Moon is Illuminated
Jan 18
Waxing Crescent
Jan 18
First Quarter
Jan 26
Full
Feb 3
Last Quarter
Feb 9
New

Hourly Weather History & Observations

Time (PST) Temp. Windchill Dew Point Humidity Pressure Visibility Wind Dir Wind Speed Gust Speed Precip Events Conditions
12:53 AM 12.0 °F - 5.0 °F 73% 30.41 in 8.0 mi Calm Calm - N/A   Clear
1:53 AM 9.0 °F 0.6 °F 3.0 °F 77% 30.43 in 8.0 mi South 4.6 mph - N/A   Clear
2:53 AM 8.1 °F -0.5 °F 1.9 °F 76% 30.41 in 8.0 mi South 4.6 mph - N/A   Clear
3:53 AM 6.1 °F - -0.9 °F 73% 30.45 in 9.0 mi Calm Calm - N/A   Clear
4:53 AM 3.9 °F -3.4 °F -2.0 °F 76% 30.48 in 9.0 mi South 3.5 mph - N/A   Clear
5:53 AM 3.0 °F - -4.0 °F 73% 30.51 in 10.0 mi Calm Calm - N/A   Clear
6:53 AM 3.0 °F -4.4 °F -4.0 °F 73% 30.53 in 10.0 mi South 3.5 mph - N/A   Clear
8:53 AM 10.0 °F 3.6 °F 1.9 °F 70% 30.56 in 10.0 mi South 3.5 mph - N/A   Clear
9:53 AM 21.9 °F 17.2 °F 8.1 °F 55% 30.50 in 10.0 mi South 3.5 mph - N/A   Clear
10:53 AM 32.0 °F - 10.9 °F 42% 30.45 in 10.0 mi Calm Calm - N/A   Clear
11:53 AM 42.1 °F - 12.9 °F 31% 30.38 in 10.0 mi Calm Calm - N/A   Clear
12:53 PM 43.0 °F 39.5 °F 16.0 °F 34% 30.35 in 10.0 mi NNE 5.8 mph - N/A   Clear
1:53 PM 43.0 °F 38.2 °F 21.0 °F 42% 30.35 in 10.0 mi NNE 8.1 mph - N/A   Clear
2:53 PM 44.1 °F 40.1 °F 19.0 °F 37% 30.35 in 10.0 mi NNE 6.9 mph - N/A   Clear
3:53 PM 41.0 °F 38.0 °F 18.0 °F 40% 30.37 in 10.0 mi NNE 4.6 mph - N/A   Clear
4:53 PM 33.1 °F - 21.0 °F 61% 30.43 in 10.0 mi Calm Calm - N/A   Clear
5:53 PM 27.0 °F - 18.0 °F 69% 30.48 in 10.0 mi Calm Calm - N/A   Clear
6:53 PM 25.0 °F 20.7 °F 16.0 °F 69% 30.51 in 10.0 mi SSW 3.5 mph - N/A   Clear
7:53 PM 21.9 °F 17.2 °F 14.0 °F 72% 30.54 in 10.0 mi South 3.5 mph - N/A   Clear
8:53 PM 19.0 °F 13.9 °F 12.9 °F 77% 30.51 in 10.0 mi South 3.5 mph - N/A   Clear
9:53 PM 16.0 °F 10.4 °F 10.0 °F 77% 30.48 in 9.0 mi SSW 3.5 mph - N/A   Clear
10:53 PM 15.1 °F 9.4 °F 8.1 °F 74% 30.43 in 9.0 mi South 3.5 mph - N/A   Clear
11:53 PM 12.9 °F 6.9 °F 7.0 °F 77% 30.40 in 8.0 mi SSW 3.5 mph - N/A   Clear